This is the latest recevied weather packets stored in our database for station/object NB9X. If no packets are shown the sender has not sent any weather packets the latest 10 day(s).
| Time | Temp. | Humidity | Pressure | Rain* | Wind** | Luminosity | Snow |
|---|---|---|---|---|---|---|---|
| 1788044972 | 24.44° C | 100% | 1015.7 hPa | 2.79 mm | - | - | - |
| 1788044672 | 24.44° C | 100% | 1015.8 hPa | 2.54 mm | - | - | - |
| 1788044372 | 25° C | 100% | 1016 hPa | 2.03 mm | - | - | - |
| 1788044072 | 25° C | 100% | 1016.2 hPa | 2.03 mm | - | - | - |
| 1788043772 | 25° C | 100% | 1016.4 hPa | 1.02 mm | - | - | - |
| 1788043472 | 26.11° C | 100% | 1016.3 hPa | 0 mm | - | - | - |
| 1788043172 | 26.11° C | 100% | 1016.2 hPa | 0 mm | - | - | - |
| 1788042872 | 26.11° C | 100% | 1016.2 hPa | 0 mm | - | - | - |
| 1788042572 | 28.33° C | 100% | 1016.1 hPa | 0 mm | - | - | - |
| 1788042272 | 28.89° C | 100% | 1015.6 hPa | 0 mm | - | - | - |
| 1788041972 | 33.33° C | 100% | 1015.5 hPa | 0 mm | - | - | - |
| 1788041672 | 33.89° C | 100% | 1015.1 hPa | 0 mm | - | - | - |
| 1788041372 | 33.33° C | 100% | 1014.9 hPa | 0 mm | - | - | - |
| 1788041072 | 34.44° C | 100% | 1014.9 hPa | 0 mm | - | - | - |
| 1788040772 | 34.44° C | 100% | 1014.9 hPa | 0 mm | - | - | - |
| 1788040472 | 34.44° C | 100% | 1015 hPa | 0 mm | - | - | - |
| 1788040172 | 33.33° C | 100% | 1014.8 hPa | 0 mm | - | - | - |
| 1788039872 | 34.44° C | 100% | 1014.8 hPa | 0 mm | - | - | - |
| 1788039572 | 33.33° C | 100% | 1014.8 hPa | 0 mm | - | - | - |
| 1788039272 | 33.33° C | 100% | 1014.6 hPa | 0 mm | - | - | - |
| 1788038972 | 32.78° C | 100% | 1014.8 hPa | 0 mm | - | - | - |
| 1788038672 | 33.89° C | 100% | 1014.9 hPa | 0 mm | - | - | - |
| 1788038372 | 33.89° C | 100% | 1015 hPa | 0 mm | - | - | - |
| 1788038072 | 33.89° C | 100% | 1014.9 hPa | 0 mm | - | - | - |
| 1788037772 | 34.44° C | 100% | 1015.1 hPa | 0 mm | - | - | - |
* Rain latest hour (hover to see other rain measurements)
** Current wind speed in m/s (hover to see current wind gust speed)